Location: Bourg-d�Oueil
(42.8588°N, 0.4991°E)
Time: 13:57:13
(UTC+00:00)

CZ-4B DEB - Pass Details

Date: 16 June 2021
Orbit: 405 x 407 km, 97.3° (Epoch: 01 August)

Event Time Altitude Azimuth Distance (km) Brightness Sun altitude
Exits shadow 22:04:40 65° 206° (SSW) 449 4.1 -18.7°
Maximum altitude 22:04:59 74° 258° (WSW) 426 4.2 -18.8°
Drops below altitude 10° 22:08:08 10° 344° (NNW) 1,473 8.2 -19.0°
Sets 22:10:08 0° 347° (NNW) 2,339 9.5 -19.2°
